Tracking 35275 objects as of 9-Sep-2026
HD Live streaming from Space Station
objects crossing your sky now

OBJECT K


OBJECT K is no longer on orbit


NORAD ID: 43840
Int'l Code: 2018-102K
Launch date: December 7, 2018
Source: (TBD)
Launch site: Jiuquan Satellite Launch Center, China (JSC)
Decay date: 2024-06-18
Your satellite tracking list
Your tracking list is empty




NASA's NSSDC Master Catalog

Two Line Element Set (TLE):
1 43840U 18102K   24169.76541773  .07803953  24993-5  17417-2 0  9992
2 43840  97.4078 262.3643 0016574 273.0221  86.9176 16.29901322306317
Source of the keplerian elements: AFSPC